TimeCST,TemperatureF,Dew PointF,Humidity,Sea Level PressureIn,VisibilityMPH,Wind Direction,Wind SpeedMPH,Gust SpeedMPH,PrecipitationIn,Events,Conditions,WindDirDegrees,DateUTC
12:15 AM,28.4,21.2,74,30.39,10.0,NNW,8.1,-,N/A,,Clear,340,2013-03-06 06:15:00
12:35 AM,26.6,21.2,80,30.39,10.0,NNW,6.9,-,N/A,,Clear,340,2013-03-06 06:35:00
12:55 AM,28.4,23.0,80,30.39,10.0,North,6.9,-,N/A,,Clear,350,2013-03-06 06:55:00
1:15 AM,26.6,21.2,80,30.40,10.0,North,6.9,-,N/A,,Clear,350,2013-03-06 07:15:00
1:35 AM,26.6,21.2,80,30.41,10.0,North,6.9,-,N/A,,Clear,350,2013-03-06 07:35:00
1:55 AM,26.6,23.0,86,30.41,10.0,North,6.9,-,N/A,,Clear,10,2013-03-06 07:55:00
2:15 AM,26.6,21.2,80,30.41,10.0,North,5.8,-,N/A,,Clear,10,2013-03-06 08:15:00
2:35 AM,26.6,21.2,80,30.41,10.0,NNE,8.1,-,N/A,,Clear,30,2013-03-06 08:35:00
2:55 AM,24.8,21.2,86,30.40,10.0,NNE,4.6,-,N/A,,Clear,20,2013-03-06 08:55:00
3:15 AM,23.0,19.4,86,30.40,10.0,Calm,Calm,-,N/A,,Clear,0,2013-03-06 09:15:00
3:35 AM,23.0,19.4,86,30.40,10.0,Calm,Calm,-,N/A,,Clear,0,2013-03-06 09:35:00
3:55 AM,23.0,19.4,86,30.40,10.0,NNE,5.8,-,N/A,,Clear,30,2013-03-06 09:55:00
4:15 AM,24.8,19.4,80,30.39,10.0,NNE,8.1,-,N/A,,Clear,20,2013-03-06 10:15:00
4:35 AM,24.8,19.4,80,30.40,10.0,NNE,8.1,-,N/A,,Clear,30,2013-03-06 10:35:00
4:55 AM,24.8,19.4,80,30.39,10.0,NE,8.1,-,N/A,,Clear,40,2013-03-06 10:55:00
5:15 AM,24.8,19.4,80,30.39,10.0,NE,11.5,-,N/A,,Clear,50,2013-03-06 11:15:00
5:55 AM,24.8,19.4,80,30.39,10.0,NE,8.1,-,N/A,,Clear,50,2013-03-06 11:55:00
6:15 AM,23.0,19.4,86,30.40,10.0,ENE,5.8,-,N/A,,Clear,60,2013-03-06 12:15:00
6:35 AM,24.8,19.4,80,30.40,10.0,NE,3.5,-,N/A,,Clear,50,2013-03-06 12:35:00
6:55 AM,24.8,17.6,74,30.40,10.0,NE,5.8,-,N/A,,Clear,50,2013-03-06 12:55:00
7:15 AM,24.8,19.4,80,30.41,10.0,NE,3.5,-,N/A,,Clear,40,2013-03-06 13:15:00
7:35 AM,26.6,19.4,74,30.41,10.0,NE,3.5,-,N/A,,Clear,50,2013-03-06 13:35:00
7:55 AM,26.6,19.4,74,30.42,10.0,ENE,3.5,-,N/A,,Clear,70,2013-03-06 13:55:00
8:15 AM,28.4,19.4,69,30.43,10.0,ENE,4.6,-,N/A,,Clear,70,2013-03-06 14:15:00
8:35 AM,28.4,19.4,69,30.43,10.0,ENE,6.9,-,N/A,,Clear,70,2013-03-06 14:35:00
8:55 AM,30.2,17.6,60,30.45,10.0,East,6.9,-,N/A,,Clear,90,2013-03-06 14:55:00
9:15 AM,32.0,19.4,60,30.45,10.0,ESE,6.9,-,N/A,,Clear,120,2013-03-06 15:15:00
9:35 AM,32.0,17.6,55,30.44,10.0,East,6.9,-,N/A,,Clear,90,2013-03-06 15:35:00
9:55 AM,32.0,17.6,55,30.44,10.0,ESE,5.8,-,N/A,,Clear,120,2013-03-06 15:55:00
10:15 AM,33.8,19.4,56,30.43,10.0,East,8.1,-,N/A,,Clear,100,2013-03-06 16:15:00
10:35 AM,35.6,19.4,52,30.43,10.0,ESE,4.6,-,N/A,,Clear,110,2013-03-06 16:35:00
10:55 AM,35.6,19.4,52,30.42,10.0,SE,5.8,-,N/A,,Clear,130,2013-03-06 16:55:00
11:15 AM,37.4,19.4,48,30.42,10.0,SSW,4.6,-,N/A,,Clear,200,2013-03-06 17:15:00
11:35 AM,37.4,19.4,48,30.41,10.0,Calm,Calm,-,N/A,,Clear,0,2013-03-06 17:35:00
11:55 AM,39.2,17.6,42,30.40,10.0,South,4.6,-,N/A,,Clear,180,2013-03-06 17:55:00
12:15 PM,39.2,19.4,45,30.39,10.0,South,3.5,-,N/A,,Clear,170,2013-03-06 18:15:00
12:35 PM,41.0,19.4,42,30.38,10.0,SE,5.8,-,N/A,,Clear,140,2013-03-06 18:35:00
12:55 PM,41.0,19.4,42,30.37,10.0,Calm,Calm,-,N/A,,Clear,0,2013-03-06 18:55:00
1:15 PM,42.8,19.4,39,30.35,10.0,Calm,Calm,-,N/A,,Clear,0,2013-03-06 19:15:00
1:35 PM,44.6,19.4,37,30.34,10.0,Calm,Calm,-,N/A,,Clear,0,2013-03-06 19:35:00
1:55 PM,44.6,19.4,37,30.33,10.0,SSE,5.8,-,N/A,,Clear,160,2013-03-06 19:55:00
2:15 PM,46.4,17.6,32,30.32,10.0,SE,5.8,-,N/A,,Clear,130,2013-03-06 20:15:00
2:35 PM,46.4,19.4,34,30.30,10.0,SE,9.2,-,N/A,,Clear,140,2013-03-06 20:35:00
2:55 PM,46.4,19.4,34,30.29,10.0,SE,5.8,-,N/A,,Clear,130,2013-03-06 20:55:00
3:15 PM,46.4,17.6,32,30.29,10.0,SE,6.9,-,N/A,,Clear,130,2013-03-06 21:15:00
3:35 PM,46.4,19.4,34,30.28,10.0,ESE,10.4,-,N/A,,Clear,120,2013-03-06 21:35:00
3:55 PM,48.2,15.8,27,30.27,10.0,SE,10.4,-,N/A,,Clear,140,2013-03-06 21:55:00
4:15 PM,48.2,17.6,30,30.26,10.0,ESE,9.2,-,N/A,,Clear,120,2013-03-06 22:15:00
4:35 PM,48.2,17.6,30,30.24,10.0,SE,9.2,-,N/A,,Clear,130,2013-03-06 22:35:00
4:55 PM,48.2,17.6,30,30.24,10.0,ESE,9.2,-,N/A,,Clear,120,2013-03-06 22:55:00
5:15 PM,48.2,19.4,32,30.23,10.0,SE,10.4,-,N/A,,Clear,130,2013-03-06 23:15:00
5:35 PM,48.2,17.6,30,30.22,10.0,SE,11.5,-,N/A,,Clear,130,2013-03-06 23:35:00
5:55 PM,46.4,19.4,34,30.21,10.0,ESE,8.1,-,N/A,,Clear,120,2013-03-06 23:55:00
6:15 PM,46.4,21.2,37,30.21,10.0,SE,6.9,-,N/A,,Clear,130,2013-03-07 00:15:00
6:35 PM,44.6,23.0,43,30.20,10.0,ESE,5.8,-,N/A,,Clear,120,2013-03-07 00:35:00
6:55 PM,44.6,23.0,43,30.20,10.0,ESE,5.8,-,N/A,,Clear,120,2013-03-07 00:55:00
7:15 PM,44.6,23.0,43,30.20,10.0,ESE,6.9,-,N/A,,Mostly Cloudy,120,2013-03-07 01:15:00
7:35 PM,44.6,24.8,46,30.20,10.0,ESE,8.1,-,N/A,,Overcast,120,2013-03-07 01:35:00
7:55 PM,44.6,24.8,46,30.20,10.0,ESE,6.9,-,N/A,,Mostly Cloudy,120,2013-03-07 01:55:00
8:15 PM,42.8,23.0,46,30.19,10.0,ESE,9.2,-,N/A,,Mostly Cloudy,120,2013-03-07 02:15:00
8:35 PM,42.8,23.0,46,30.19,10.0,SE,8.1,-,N/A,,Mostly Cloudy,130,2013-03-07 02:35:00
8:55 PM,41.0,24.8,53,30.19,10.0,ESE,8.1,-,N/A,,Mostly Cloudy,110,2013-03-07 02:55:00
9:15 PM,41.0,23.0,49,30.18,10.0,ESE,9.2,-,N/A,,Overcast,120,2013-03-07 03:15:00
9:35 PM,41.0,23.0,49,30.18,10.0,ESE,8.1,-,N/A,,Scattered Clouds,110,2013-03-07 03:35:00
9:55 PM,41.0,23.0,49,30.18,10.0,ESE,11.5,-,N/A,,Clear,110,2013-03-07 03:55:00
10:15 PM,41.0,23.0,49,30.18,10.0,SE,9.2,-,N/A,,Clear,130,2013-03-07 04:15:00
10:35 PM,41.0,23.0,49,30.18,10.0,ESE,9.2,-,N/A,,Clear,120,2013-03-07 04:35:00
10:55 PM,39.2,23.0,52,30.19,10.0,ESE,8.1,-,N/A,,Clear,120,2013-03-07 04:55:00
11:15 PM,39.2,23.0,52,30.19,10.0,ESE,6.9,-,N/A,,Clear,110,2013-03-07 05:15:00
11:35 PM,37.4,23.0,56,30.19,10.0,ESE,6.9,-,N/A,,Clear,110,2013-03-07 05:35:00
11:55 PM,37.4,23.0,56,30.19,10.0,ESE,8.1,-,N/A,,Clear,110,2013-03-07 05:55:00